Time,TemperatureF,DewpointF,PressureIn,WindDirection,WindDirectionDegrees,WindSpeedMPH,WindSpeedGustMPH,Humidity,HourlyPrecipIn,Conditions,Clouds,dailyrainin,SolarRadiationWatts/m^2,SoftwareType,DateUTC
2013-12-27 00:04:00,41.2,35.2,30.34,NE,34,0.0,0.0,79,0.00,,,0.00,0,Wunderground v.1.15,2013-12-27 06:04:00,
2013-12-27 00:10:00,41.1,35.1,30.34,NE,34,0.0,0.0,79,0.00,,,0.00,0,Wunderground v.1.15,2013-12-27 06:10:00,
2013-12-27 00:15:00,41.0,35.0,30.34,NE,34,0.0,0.0,79,0.00,,,0.00,0,Wunderground v.1.15,2013-12-27 06:15:00,
2013-12-27 00:20:00,40.9,34.9,30.34,NE,34,0.0,0.0,79,0.00,,,0.00,0,Wunderground v.1.15,2013-12-27 06:20:00,
2013-12-27 00:25:00,40.8,35.1,30.33,NE,34,0.0,0.0,80,0.00,,,0.00,0,Wunderground v.1.15,2013-12-27 06:25:00,
2013-12-27 00:31:00,40.7,35.0,30.34,NE,34,0.0,0.0,80,0.00,,,0.00,0,Wunderground v.1.15,2013-12-27 06:31:00,
2013-12-27 00:36:00,40.6,34.9,30.34,NE,34,0.0,0.0,80,0.00,,,0.00,0,Wunderground v.1.15,2013-12-27 06:36:00,
2013-12-27 00:41:00,40.5,35.1,30.33,NE,34,0.0,0.0,81,0.00,,,0.00,0,Wunderground v.1.15,2013-12-27 06:41:00,
2013-12-27 00:46:00,40.4,35.0,30.33,NE,34,0.0,2.0,81,0.00,,,0.00,0,Wunderground v.1.15,2013-12-27 06:46:00,
2013-12-27 00:51:00,40.4,35.0,30.33,NE,34,0.0,0.0,81,0.00,,,0.00,0,Wunderground v.1.15,2013-12-27 06:51:00,
2013-12-27 00:56:00,40.3,34.9,30.34,NE,34,0.0,0.0,81,0.00,,,0.00,0,Wunderground v.1.15,2013-12-27 06:56:00,
2013-12-27 01:01:00,40.2,34.8,30.33,NE,34,0.0,0.0,81,0.00,,,0.00,0,Wunderground v.1.15,2013-12-27 07:01:00,
2013-12-27 01:06:00,40.1,35.0,30.33,NE,34,0.0,0.0,82,0.00,,,0.00,0,Wunderground v.1.15,2013-12-27 07:06:00,
2013-12-27 01:11:00,39.9,34.9,30.33,NE,34,0.0,0.0,82,0.00,,,0.00,0,Wunderground v.1.15,2013-12-27 07:11:00,
2013-12-27 01:17:00,39.7,34.7,30.33,NE,34,0.0,0.0,82,0.00,,,0.00,0,Wunderground v.1.15,2013-12-27 07:17:00,
2013-12-27 01:22:00,39.6,34.9,30.33,NE,34,0.0,0.0,83,0.00,,,0.00,0,Wunderground v.1.15,2013-12-27 07:22:00,
2013-12-27 01:27:00,39.5,34.8,30.33,NE,34,0.0,0.0,83,0.00,,,0.00,0,Wunderground v.1.15,2013-12-27 07:27:00,
2013-12-27 01:32:00,39.3,34.6,30.33,NE,34,0.0,0.0,83,0.00,,,0.00,0,Wunderground v.1.15,2013-12-27 07:32:00,
2013-12-27 01:37:00,39.1,34.7,30.33,NE,34,0.0,0.0,84,0.00,,,0.00,0,Wunderground v.1.15,2013-12-27 07:37:00,
2013-12-27 01:42:00,38.9,34.5,30.33,NE,34,0.0,0.0,84,0.00,,,0.00,0,Wunderground v.1.15,2013-12-27 07:42:00,
2013-12-27 01:48:00,38.8,34.7,30.33,NE,34,0.0,0.0,85,0.00,,,0.00,0,Wunderground v.1.15,2013-12-27 07:48:00,
2013-12-27 01:53:00,38.7,34.6,30.33,NE,34,0.0,0.0,85,0.00,,,0.00,0,Wunderground v.1.15,2013-12-27 07:53:00,
2013-12-27 01:58:00,38.7,34.6,30.33,NE,34,0.0,0.0,85,0.00,,,0.00,0,Wunderground v.1.15,2013-12-27 07:58:00,
2013-12-27 02:03:00,38.7,34.6,30.33,NE,34,0.0,1.0,85,0.00,,,0.00,0,Wunderground v.1.15,2013-12-27 08:03:00,
2013-12-27 02:08:00,38.7,34.6,30.34,NE,34,0.0,1.0,85,0.00,,,0.00,0,Wunderground v.1.15,2013-12-27 08:08:00,
2013-12-27 02:14:00,38.7,34.6,30.34,NE,34,0.0,1.0,85,0.00,,,0.00,0,Wunderground v.1.15,2013-12-27 08:14:00,
2013-12-27 02:19:00,38.7,34.6,30.34,NE,34,0.0,1.0,85,0.00,,,0.00,0,Wunderground v.1.15,2013-12-27 08:19:00,
2013-12-27 02:24:00,38.7,34.6,30.34,NE,34,0.0,3.0,85,0.00,,,0.00,0,Wunderground v.1.15,2013-12-27 08:24:00,
2013-12-27 02:30:00,38.6,34.5,30.34,NE,34,0.0,1.0,85,0.00,,,0.00,0,Wunderground v.1.15,2013-12-27 08:30:00,
2013-12-27 02:35:00,38.7,34.6,30.34,NE,34,0.0,1.0,85,0.00,,,0.00,0,Wunderground v.1.15,2013-12-27 08:35:00,
2013-12-27 02:40:00,38.7,34.6,30.34,NNE,32,0.0,3.0,85,0.00,,,0.00,0,Wunderground v.1.15,2013-12-27 08:40:00,
2013-12-27 02:46:00,38.7,34.6,30.34,NNE,33,0.0,3.0,85,0.00,,,0.00,0,Wunderground v.1.15,2013-12-27 08:46:00,
2013-12-27 02:51:00,38.7,34.6,30.35,NNE,33,0.0,1.0,85,0.00,,,0.00,0,Wunderground v.1.15,2013-12-27 08:51:00,
2013-12-27 02:57:00,38.8,34.7,30.35,NNE,33,0.0,1.0,85,0.00,,,0.00,0,Wunderground v.1.15,2013-12-27 08:57:00,
2013-12-27 03:02:00,38.9,34.8,30.35,NNE,33,0.0,1.0,85,0.00,,,0.00,0,Wunderground v.1.15,2013-12-27 09:02:00,
2013-12-27 03:08:00,39.0,34.9,30.34,NNE,33,0.0,1.0,85,0.00,,,0.00,0,Wunderground v.1.15,2013-12-27 09:08:00,
2013-12-27 03:13:00,39.1,35.0,30.34,NNE,33,0.0,1.0,85,0.00,,,0.00,0,Wunderground v.1.15,2013-12-27 09:13:00,
2013-12-27 03:19:00,39.2,35.1,30.35,NNE,33,0.0,1.0,85,0.00,,,0.00,0,Wunderground v.1.15,2013-12-27 09:19:00,
2013-12-27 03:24:00,39.2,35.1,30.35,NNE,33,0.0,1.0,85,0.00,,,0.00,0,Wunderground v.1.15,2013-12-27 09:24:00,
2013-12-27 03:30:00,39.3,35.2,30.34,NNE,33,0.0,1.0,85,0.00,,,0.00,0,Wunderground v.1.15,2013-12-27 09:30:00,
2013-12-27 03:35:00,39.3,34.9,30.33,NNE,33,0.0,1.0,84,0.00,,,0.00,0,Wunderground v.1.15,2013-12-27 09:35:00,
2013-12-27 03:41:00,39.3,34.9,30.33,NNE,32,1.0,1.0,84,0.00,,,0.00,0,Wunderground v.1.15,2013-12-27 09:41:00,
2013-12-27 03:46:00,39.4,35.0,30.34,NNE,26,1.0,2.0,84,0.00,,,0.00,0,Wunderground v.1.15,2013-12-27 09:46:00,
2013-12-27 03:52:00,39.4,35.0,30.35,NNE,26,1.0,1.0,84,0.00,,,0.00,0,Wunderground v.1.15,2013-12-27 09:52:00,
2013-12-27 03:57:00,39.5,35.1,30.35,NNE,26,0.0,1.0,84,0.00,,,0.00,0,Wunderground v.1.15,2013-12-27 09:57:00,
2013-12-27 04:03:00,39.5,35.1,30.35,NNE,26,0.0,1.0,84,0.00,,,0.00,0,Wunderground v.1.15,2013-12-27 10:03:00,
2013-12-27 04:09:00,39.5,34.8,30.36,NNE,26,0.0,1.0,83,0.00,,,0.00,0,Wunderground v.1.15,2013-12-27 10:09:00,
2013-12-27 04:14:00,39.6,34.9,30.36,NNE,26,0.0,1.0,83,0.00,,,0.00,0,Wunderground v.1.15,2013-12-27 10:14:00,
2013-12-27 04:20:00,39.7,35.0,30.35,NNE,26,0.0,1.0,83,0.00,,,0.00,0,Wunderground v.1.15,2013-12-27 10:20:00,
2013-12-27 04:26:00,39.9,34.9,30.34,NNE,28,1.0,2.0,82,0.00,,,0.00,0,Wunderground v.1.15,2013-12-27 10:26:00,
2013-12-27 04:31:00,40.1,34.7,30.34,NE,37,1.0,1.0,81,0.00,,,0.00,0,Wunderground v.1.15,2013-12-27 10:31:00,
2013-12-27 04:37:00,40.1,34.7,30.34,North,5,1.0,1.0,81,0.00,,,0.00,0,Wunderground v.1.15,2013-12-27 10:37:00,
2013-12-27 04:43:00,40.1,34.7,30.34,NNE,15,1.0,1.0,81,0.00,,,0.00,0,Wunderground v.1.15,2013-12-27 10:43:00,
2013-12-27 04:48:00,40.0,34.6,30.34,NNE,30,1.0,4.0,81,0.00,,,0.00,0,Wunderground v.1.15,2013-12-27 10:48:00,
2013-12-27 04:53:00,40.1,34.7,30.34,NE,34,1.0,1.0,81,0.00,,,0.00,0,Wunderground v.1.15,2013-12-27 10:53:00,
2013-12-27 04:59:00,40.2,34.8,30.34,ENE,75,1.0,2.0,81,0.00,,,0.00,0,Wunderground v.1.15,2013-12-27 10:59:00,
2013-12-27 05:05:00,40.2,34.8,30.35,ENE,68,1.0,1.0,81,0.00,,,0.00,0,Wunderground v.1.15,2013-12-27 11:05:00,
2013-12-27 05:11:00,40.3,34.6,30.35,ENE,71,1.0,8.0,80,0.00,,,0.00,0,Wunderground v.1.15,2013-12-27 11:11:00,
2013-12-27 05:17:00,40.5,34.8,30.35,NNE,30,1.0,8.0,80,0.00,,,0.00,0,Wunderground v.1.15,2013-12-27 11:17:00,
2013-12-27 05:22:00,40.6,34.6,30.35,NNE,31,0.0,1.0,79,0.00,,,0.00,0,Wunderground v.1.15,2013-12-27 11:22:00,
2013-12-27 05:28:00,40.6,34.9,30.36,NE,50,0.0,1.0,80,0.00,,,0.00,0,Wunderground v.1.15,2013-12-27 11:28:00,
2013-12-27 05:34:00,40.6,34.6,30.36,NE,52,0.0,1.0,79,0.00,,,0.00,0,Wunderground v.1.15,2013-12-27 11:34:00,
2013-12-27 05:40:00,40.6,34.6,30.36,NE,50,0.0,1.0,79,0.00,,,0.00,0,Wunderground v.1.15,2013-12-27 11:40:00,
2013-12-27 05:45:00,40.5,34.8,30.36,NE,50,0.0,1.0,80,0.00,,,0.00,0,Wunderground v.1.15,2013-12-27 11:45:00,
2013-12-27 05:50:00,40.3,34.6,30.36,NE,50,0.0,1.0,80,0.00,,,0.00,0,Wunderground v.1.15,2013-12-27 11:50:00,
2013-12-27 05:56:00,40.1,34.4,30.36,NE,50,0.0,1.0,80,0.00,,,0.00,0,Wunderground v.1.15,2013-12-27 11:56:00,
2013-12-27 06:01:00,40.0,34.6,30.37,NE,44,0.0,1.0,81,0.00,,,0.00,0,Wunderground v.1.15,2013-12-27 12:01:00,
2013-12-27 06:06:00,39.8,34.4,30.36,NE,42,0.0,4.0,81,0.00,,,0.00,0,Wunderground v.1.15,2013-12-27 12:06:00,
2013-12-27 06:11:00,39.7,34.7,30.36,NE,46,1.0,1.0,82,0.00,,,0.00,0,Wunderground v.1.15,2013-12-27 12:11:00,
2013-12-27 06:16:00,39.5,34.2,30.36,NE,46,0.0,1.0,81,0.00,,,0.00,0,Wunderground v.1.15,2013-12-27 12:16:00,
2013-12-27 06:21:00,39.4,34.4,30.36,NE,46,0.0,1.0,82,0.00,,,0.00,0,Wunderground v.1.15,2013-12-27 12:21:00,
2013-12-27 06:26:00,39.4,34.4,30.36,NE,46,0.0,1.0,82,0.00,,,0.00,0,Wunderground v.1.15,2013-12-27 12:26:00,
2013-12-27 06:31:00,39.3,34.0,30.36,NE,46,1.0,1.0,81,0.00,,,0.00,0,Wunderground v.1.15,2013-12-27 12:31:00,
2013-12-27 06:36:00,39.3,34.0,30.36,NE,47,0.0,1.0,81,0.00,,,0.00,0,Wunderground v.1.15,2013-12-27 12:36:00,
2013-12-27 06:41:00,39.2,34.2,30.36,NE,48,0.0,1.0,82,0.00,,,0.00,0,Wunderground v.1.15,2013-12-27 12:41:00,
2013-12-27 06:46:00,39.2,33.9,30.36,East,79,0.0,4.0,81,0.00,,,0.00,0,Wunderground v.1.15,2013-12-27 12:46:00,
2013-12-27 06:51:00,39.1,33.8,30.36,ENE,74,0.0,1.0,81,0.00,,,0.00,0,Wunderground v.1.15,2013-12-27 12:51:00,
2013-12-27 06:56:00,39.2,33.9,30.37,NE,50,0.0,6.0,81,0.00,,,0.00,0,Wunderground v.1.15,2013-12-27 12:56:00,
2013-12-27 07:02:00,39.2,33.9,30.37,NNE,32,1.0,6.0,81,0.00,,,0.00,0,Wunderground v.1.15,2013-12-27 13:02:00,
2013-12-27 07:07:00,39.3,34.0,30.37,ENE,60,1.0,6.0,81,0.00,,,0.00,11,Wunderground v.1.15,2013-12-27 13:07:00,
2013-12-27 07:12:00,39.3,34.0,30.37,ENE,58,0.0,1.0,81,0.00,,,0.00,19,Wunderground v.1.15,2013-12-27 13:12:00,
2013-12-27 07:17:00,39.2,33.9,30.37,ENE,58,0.0,1.0,81,0.00,,,0.00,25,Wunderground v.1.15,2013-12-27 13:17:00,
2013-12-27 07:22:00,39.3,34.0,30.37,NE,54,0.0,1.0,81,0.00,,,0.00,28,Wunderground v.1.15,2013-12-27 13:22:00,
2013-12-27 07:28:00,39.4,34.1,30.38,NE,54,0.0,1.0,81,0.00,,,0.00,32,Wunderground v.1.15,2013-12-27 13:28:00,
2013-12-27 07:33:00,39.4,33.7,30.38,NE,54,0.0,1.0,80,0.00,,,0.00,37,Wunderground v.1.15,2013-12-27 13:33:00,
2013-12-27 07:38:00,39.6,33.9,30.39,NE,54,0.0,1.0,80,0.00,,,0.00,40,Wunderground v.1.15,2013-12-27 13:38:00,
2013-12-27 07:43:00,39.7,34.0,30.39,NE,54,0.0,1.0,80,0.00,,,0.00,35,Wunderground v.1.15,2013-12-27 13:43:00,
2013-12-27 07:48:00,39.7,34.0,30.39,NE,53,0.0,2.0,80,0.00,,,0.00,30,Wunderground v.1.15,2013-12-27 13:48:00,
2013-12-27 07:53:00,39.8,34.1,30.39,NE,53,0.0,1.0,80,0.00,,,0.00,30,Wunderground v.1.15,2013-12-27 13:53:00,
2013-12-27 07:58:00,39.8,34.4,30.39,NE,53,0.0,1.0,81,0.00,,,0.00,37,Wunderground v.1.15,2013-12-27 13:58:00,
2013-12-27 08:03:00,39.9,34.5,30.39,ENE,77,0.0,1.0,81,0.00,,,0.00,49,Wunderground v.1.15,2013-12-27 14:03:00,
2013-12-27 08:08:00,39.9,34.2,30.40,ENE,77,0.0,1.0,80,0.00,,,0.00,60,Wunderground v.1.15,2013-12-27 14:08:00,
2013-12-27 08:13:00,40.0,34.3,30.40,ENE,77,0.0,1.0,80,0.00,,,0.00,72,Wunderground v.1.15,2013-12-27 14:13:00,
2013-12-27 08:18:00,40.0,34.3,30.40,ENE,77,0.0,1.0,80,0.00,,,0.00,90,Wunderground v.1.15,2013-12-27 14:18:00,
2013-12-27 08:23:00,40.1,34.4,30.40,ENE,77,0.0,1.0,80,0.00,,,0.00,107,Wunderground v.1.15,2013-12-27 14:23:00,
2013-12-27 08:28:00,40.3,34.9,30.40,ENE,77,0.0,1.0,81,0.00,,,0.00,137,Wunderground v.1.15,2013-12-27 14:28:00,
2013-12-27 08:33:00,40.6,34.9,30.40,ENE,76,0.0,1.0,80,0.00,,,0.00,127,Wunderground v.1.15,2013-12-27 14:33:00,
2013-12-27 08:38:00,41.0,35.0,30.40,ENE,76,0.0,1.0,79,0.00,,,0.00,132,Wunderground v.1.15,2013-12-27 14:38:00,
2013-12-27 08:43:00,41.2,34.9,30.40,ENE,76,0.0,1.0,78,0.00,,,0.00,137,Wunderground v.1.15,2013-12-27 14:43:00,
2013-12-27 08:49:00,41.6,35.6,30.40,ENE,76,0.0,3.0,79,0.00,,,0.00,134,Wunderground v.1.15,2013-12-27 14:49:00,
2013-12-27 08:54:00,41.9,34.9,30.40,ENE,75,1.0,3.0,76,0.00,,,0.00,160,Wunderground v.1.15,2013-12-27 14:54:00,
2013-12-27 08:59:00,42.2,35.2,30.41,East,79,1.0,4.0,76,0.00,,,0.00,139,Wunderground v.1.15,2013-12-27 14:59:00,
2013-12-27 09:04:00,42.5,35.1,30.41,ENE,74,1.0,2.0,75,0.00,,,0.00,167,Wunderground v.1.15,2013-12-27 15:04:00,
2013-12-27 09:09:00,42.9,35.5,30.41,ENE,70,1.0,3.0,75,0.00,,,0.00,130,Wunderground v.1.15,2013-12-27 15:09:00,
2013-12-27 09:14:00,43.1,35.7,30.41,ENE,70,0.0,1.0,75,0.00,,,0.00,151,Wunderground v.1.15,2013-12-27 15:14:00,
2013-12-27 09:19:00,43.4,35.7,30.41,ENE,70,0.0,3.0,74,0.00,,,0.00,188,Wunderground v.1.15,2013-12-27 15:19:00,
2013-12-27 09:24:00,43.7,35.6,30.42,ENE,69,0.0,1.0,73,0.00,,,0.00,241,Wunderground v.1.15,2013-12-27 15:24:00,
2013-12-27 09:30:00,44.2,36.1,30.42,ENE,69,0.0,1.0,73,0.00,,,0.00,193,Wunderground v.1.15,2013-12-27 15:30:00,
2013-12-27 09:35:00,44.6,36.1,30.43,ENE,69,0.0,1.0,72,0.00,,,0.00,172,Wunderground v.1.15,2013-12-27 15:35:00,
2013-12-27 09:40:00,44.9,35.7,30.43,NE,51,1.0,1.0,70,0.00,,,0.00,188,Wunderground v.1.15,2013-12-27 15:40:00,
2013-12-27 09:45:00,45.0,35.8,30.42,NE,46,1.0,3.0,70,0.00,,,0.00,181,Wunderground v.1.15,2013-12-27 15:45:00,
2013-12-27 09:50:00,45.3,35.7,30.43,NE,44,1.0,1.0,69,0.00,,,0.00,188,Wunderground v.1.15,2013-12-27 15:50:00,
2013-12-27 09:55:00,45.5,35.9,30.43,NE,35,1.0,4.0,69,0.00,,,0.00,214,Wunderground v.1.15,2013-12-27 15:55:00,
2013-12-27 10:00:00,45.8,35.8,30.42,NE,50,2.0,2.0,68,0.00,,,0.00,246,Wunderground v.1.15,2013-12-27 16:00:00,
2013-12-27 10:06:00,46.2,36.2,30.41,NE,44,2.0,6.0,68,0.00,,,0.00,262,Wunderground v.1.15,2013-12-27 16:06:00,
2013-12-27 10:11:00,46.6,35.8,30.41,NE,42,2.0,6.0,66,0.00,,,0.00,209,Wunderground v.1.15,2013-12-27 16:11:00,
2013-12-27 10:16:00,46.9,36.1,30.41,North,10,2.0,6.0,66,0.00,,,0.00,153,Wunderground v.1.15,2013-12-27 16:16:00,
2013-12-27 10:22:00,47.1,35.9,30.41,ENE,75,3.0,3.0,65,0.00,,,0.00,137,Wunderground v.1.15,2013-12-27 16:22:00,
2013-12-27 10:27:00,47.2,35.6,30.41,NE,54,2.0,4.0,64,0.00,,,0.00,134,Wunderground v.1.15,2013-12-27 16:27:00,
2013-12-27 10:32:00,47.3,35.3,30.41,ENE,60,2.0,7.0,63,0.00,,,0.00,162,Wunderground v.1.15,2013-12-27 16:32:00,
2013-12-27 10:37:00,47.5,35.9,30.41,North,360,2.0,7.0,64,0.00,,,0.00,183,Wunderground v.1.15,2013-12-27 16:37:00,
2013-12-27 10:42:00,47.7,36.1,30.41,East,79,2.0,2.0,64,0.00,,,0.00,202,Wunderground v.1.15,2013-12-27 16:42:00,
2013-12-27 10:56:00,48.3,35.0,30.41,NE,39,1.0,3.0,60,0.00,,,0.00,229,Wunderground v.1.15,2013-12-27 16:56:00,
2013-12-27 11:02:00,48.5,34.8,30.40,North,10,1.0,7.0,59,0.00,,,0.00,239,Wunderground v.1.15,2013-12-27 17:02:00,
2013-12-27 11:07:00,48.6,34.9,30.40,NE,56,1.0,7.0,59,0.00,,,0.00,272,Wunderground v.1.15,2013-12-27 17:07:00,
2013-12-27 11:12:00,48.8,35.1,30.41,NNE,21,2.0,3.0,59,0.00,,,0.00,299,Wunderground v.1.15,2013-12-27 17:12:00,
2013-12-27 11:17:00,49.0,35.3,30.41,NNE,32,2.0,4.0,59,0.00,,,0.00,424,Wunderground v.1.15,2013-12-27 17:17:00,
2013-12-27 11:22:00,49.3,35.1,30.41,NNE,24,2.0,4.0,58,0.00,,,0.00,388,Wunderground v.1.15,2013-12-27 17:22:00,
2013-12-27 11:27:00,49.7,35.5,30.40,NE,34,1.0,4.0,58,0.00,,,0.00,418,Wunderground v.1.15,2013-12-27 17:27:00,
2013-12-27 11:33:00,50.3,36.1,30.40,ENE,74,0.0,1.0,58,0.00,,,0.00,341,Wunderground v.1.15,2013-12-27 17:33:00,
2013-12-27 11:38:00,50.6,35.9,30.40,ENE,59,0.0,1.0,57,0.00,,,0.00,341,Wunderground v.1.15,2013-12-27 17:38:00,
2013-12-27 11:43:00,50.7,35.6,30.40,ENE,59,0.0,1.0,56,0.00,,,0.00,336,Wunderground v.1.15,2013-12-27 17:43:00,
2013-12-27 11:49:00,50.9,35.3,30.39,NE,54,0.0,6.0,55,0.00,,,0.00,301,Wunderground v.1.15,2013-12-27 17:49:00,
2013-12-27 11:54:00,50.8,34.7,30.39,NNW,339,1.0,1.0,54,0.00,,,0.00,288,Wunderground v.1.15,2013-12-27 17:54:00,
2013-12-27 11:59:00,50.6,35.0,30.38,NE,36,1.0,5.0,55,0.00,,,0.00,295,Wunderground v.1.15,2013-12-27 17:59:00,
2013-12-27 12:04:00,50.4,34.8,30.37,NE,44,2.0,5.0,55,0.00,,,0.00,304,Wunderground v.1.15,2013-12-27 18:04:00,
2013-12-27 12:09:00,50.3,34.7,30.37,NE,48,1.0,5.0,55,0.00,,,0.00,316,Wunderground v.1.15,2013-12-27 18:09:00,
2013-12-27 12:14:00,50.3,35.2,30.36,NE,42,0.0,6.0,56,0.00,,,0.00,309,Wunderground v.1.15,2013-12-27 18:14:00,
2013-12-27 12:19:00,50.5,35.4,30.36,North,354,1.0,6.0,56,0.00,,,0.00,306,Wunderground v.1.15,2013-12-27 18:19:00,
2013-12-27 12:24:00,50.6,35.5,30.36,NNE,28,2.0,8.0,56,0.00,,,0.00,316,Wunderground v.1.15,2013-12-27 18:24:00,
2013-12-27 12:29:00,50.6,35.5,30.35,NNE,27,1.0,8.0,56,0.00,,,0.00,281,Wunderground v.1.15,2013-12-27 18:29:00,
2013-12-27 12:34:00,50.8,35.2,30.35,NNE,25,0.0,5.0,55,0.00,,,0.00,255,Wunderground v.1.15,2013-12-27 18:34:00,
2013-12-27 12:39:00,50.8,34.7,30.34,NE,34,0.0,5.0,54,0.00,,,0.00,239,Wunderground v.1.15,2013-12-27 18:39:00,
2013-12-27 12:45:00,50.9,35.3,30.34,NE,34,0.0,1.0,55,0.00,,,0.00,237,Wunderground v.1.15,2013-12-27 18:45:00,
2013-12-27 12:50:00,51.0,34.5,30.34,NE,45,1.0,5.0,53,0.00,,,0.00,253,Wunderground v.1.15,2013-12-27 18:50:00,
2013-12-27 12:55:00,51.0,34.0,30.33,NNE,29,1.0,6.0,52,0.00,,,0.00,288,Wunderground v.1.15,2013-12-27 18:55:00,
2013-12-27 13:01:00,51.2,34.6,30.33,ENE,65,1.0,4.0,53,0.00,,,0.00,301,Wunderground v.1.15,2013-12-27 19:01:00,
2013-12-27 13:07:00,51.2,34.6,30.33,NNE,15,2.0,4.0,53,0.00,,,0.00,250,Wunderground v.1.15,2013-12-27 19:07:00,
2013-12-27 13:12:00,51.3,34.7,30.32,NNE,15,1.0,2.0,53,0.00,,,0.00,264,Wunderground v.1.15,2013-12-27 19:12:00,
2013-12-27 13:18:00,51.4,35.8,30.32,NE,51,1.0,4.0,55,0.00,,,0.00,267,Wunderground v.1.15,2013-12-27 19:18:00,
2013-12-27 13:24:00,51.3,34.7,30.31,NNW,341,2.0,4.0,53,0.00,,,0.00,248,Wunderground v.1.15,2013-12-27 19:24:00,
2013-12-27 13:29:00,51.4,34.8,30.31,NNE,15,3.0,4.0,53,0.00,,,0.00,248,Wunderground v.1.15,2013-12-27 19:29:00,
2013-12-27 13:34:00,51.5,34.4,30.31,NNE,15,1.0,2.0,52,0.00,,,0.00,255,Wunderground v.1.15,2013-12-27 19:34:00,
2013-12-27 13:39:00,51.7,33.6,30.31,NNE,21,1.0,6.0,50,0.00,,,0.00,237,Wunderground v.1.15,2013-12-27 19:39:00,
2013-12-27 13:44:00,51.8,33.7,30.31,NNE,29,1.0,1.0,50,0.00,,,0.00,232,Wunderground v.1.15,2013-12-27 19:44:00,
2013-12-27 13:49:00,51.9,33.3,30.31,NNE,27,1.0,1.0,49,0.00,,,0.00,220,Wunderground v.1.15,2013-12-27 19:49:00,
2013-12-27 13:54:00,52.0,33.4,30.31,North,5,1.0,2.0,49,0.00,,,0.00,197,Wunderground v.1.15,2013-12-27 19:54:00,
2013-12-27 13:59:00,52.1,33.0,30.31,North,10,0.0,2.0,48,0.00,,,0.00,213,Wunderground v.1.15,2013-12-27 19:59:00,
2013-12-27 14:04:00,52.0,32.4,30.31,North,5,0.0,1.0,47,0.00,,,0.00,241,Wunderground v.1.15,2013-12-27 20:04:00,
2013-12-27 14:09:00,52.1,33.0,30.31,North,5,0.0,5.0,48,0.00,,,0.00,239,Wunderground v.1.15,2013-12-27 20:09:00,
2013-12-27 14:15:00,52.1,33.5,30.31,NE,36,0.0,4.0,49,0.00,,,0.00,202,Wunderground v.1.15,2013-12-27 20:15:00,
2013-12-27 14:20:00,52.3,33.7,30.31,NE,34,0.0,1.0,49,0.00,,,0.00,181,Wunderground v.1.15,2013-12-27 20:20:00,
2013-12-27 14:25:00,52.2,32.6,30.30,NNE,22,1.0,2.0,47,0.00,,,0.00,158,Wunderground v.1.15,2013-12-27 20:25:00,
2013-12-27 14:30:00,51.9,32.8,30.30,NNE,19,1.0,1.0,48,0.00,,,0.00,156,Wunderground v.1.15,2013-12-27 20:30:00,
2013-12-27 14:35:00,51.9,32.8,30.30,NNE,25,0.0,1.0,48,0.00,,,0.00,144,Wunderground v.1.15,2013-12-27 20:35:00,
2013-12-27 14:40:00,51.9,32.3,30.30,NNE,28,0.0,1.0,47,0.00,,,0.00,128,Wunderground v.1.15,2013-12-27 20:40:00,
2013-12-27 14:45:00,51.8,32.2,30.30,NE,36,0.0,1.0,47,0.00,,,0.00,130,Wunderground v.1.15,2013-12-27 20:45:00,
2013-12-27 14:50:00,51.7,31.0,30.30,NNE,31,1.0,3.0,45,0.00,,,0.00,141,Wunderground v.1.15,2013-12-27 20:50:00,
2013-12-27 14:55:00,51.6,30.9,30.30,NE,56,1.0,4.0,45,0.00,,,0.00,144,Wunderground v.1.15,2013-12-27 20:55:00,
2013-12-27 15:00:00,51.7,31.0,30.30,NE,46,1.0,1.0,45,0.00,,,0.00,139,Wunderground v.1.15,2013-12-27 21:00:00,
2013-12-27 15:05:00,51.7,31.6,30.30,NNE,29,0.0,1.0,46,0.00,,,0.00,125,Wunderground v.1.15,2013-12-27 21:05:00,
2013-12-27 15:11:00,51.7,32.1,30.30,NNE,29,1.0,1.0,47,0.00,,,0.00,121,Wunderground v.1.15,2013-12-27 21:11:00,
2013-12-27 15:16:00,51.6,30.9,30.30,NNE,32,1.0,2.0,45,0.00,,,0.00,120,Wunderground v.1.15,2013-12-27 21:16:00,
2013-12-27 15:21:00,51.6,31.5,30.30,NE,39,1.0,1.0,46,0.00,,,0.00,107,Wunderground v.1.15,2013-12-27 21:21:00,
2013-12-27 15:26:00,51.6,32.0,30.30,NNE,15,1.0,7.0,47,0.00,,,0.00,90,Wunderground v.1.15,2013-12-27 21:26:00,
2013-12-27 15:31:00,51.6,32.0,30.30,North,5,2.0,4.0,47,0.00,,,0.00,72,Wunderground v.1.15,2013-12-27 21:31:00,
2013-12-27 15:36:00,51.5,30.8,30.31,North,10,3.0,6.0,45,0.00,,,0.00,67,Wunderground v.1.15,2013-12-27 21:36:00,
2013-12-27 15:41:00,51.5,31.4,30.30,NNE,20,2.0,2.0,46,0.00,,,0.00,60,Wunderground v.1.15,2013-12-27 21:41:00,
2013-12-27 15:46:00,51.4,31.8,30.30,NNE,19,1.0,2.0,47,0.00,,,0.00,58,Wunderground v.1.15,2013-12-27 21:46:00,
2013-12-27 15:51:00,51.4,31.8,30.31,NNE,19,0.0,1.0,47,0.00,,,0.00,53,Wunderground v.1.15,2013-12-27 21:51:00,
2013-12-27 15:56:00,51.3,31.7,30.31,NNE,19,0.0,1.0,47,0.00,,,0.00,49,Wunderground v.1.15,2013-12-27 21:56:00,
2013-12-27 16:01:00,51.2,31.6,30.31,NNE,19,0.0,1.0,47,0.00,,,0.00,46,Wunderground v.1.15,2013-12-27 22:01:00,
2013-12-27 16:07:00,51.1,32.6,30.31,NNE,19,0.0,1.0,49,0.00,,,0.00,40,Wunderground v.1.15,2013-12-27 22:07:00,
2013-12-27 16:12:00,51.0,33.0,30.31,NNE,19,0.0,1.0,50,0.00,,,0.00,37,Wunderground v.1.15,2013-12-27 22:12:00,
2013-12-27 16:17:00,50.9,33.4,30.30,NNE,19,0.0,1.0,51,0.00,,,0.00,35,Wunderground v.1.15,2013-12-27 22:17:00,
2013-12-27 16:22:00,50.8,33.3,30.31,NNE,19,0.0,1.0,51,0.00,,,0.00,28,Wunderground v.1.15,2013-12-27 22:22:00,
2013-12-27 16:27:00,50.7,34.6,30.31,NNE,19,0.0,1.0,54,0.00,,,0.00,21,Wunderground v.1.15,2013-12-27 22:27:00,
2013-12-27 16:32:00,50.6,35.5,30.31,NNE,19,0.0,1.0,56,0.00,,,0.00,18,Wunderground v.1.15,2013-12-27 22:32:00,
2013-12-27 16:38:00,50.4,36.2,30.31,NNW,337,1.0,5.0,58,0.00,,,0.00,14,Wunderground v.1.15,2013-12-27 22:38:00,
2013-12-27 16:44:00,50.3,36.1,30.31,North,354,2.0,6.0,58,0.00,,,0.00,9,Wunderground v.1.15,2013-12-27 22:44:00,
2013-12-27 16:49:00,50.1,35.9,30.31,North,10,1.0,6.0,58,0.00,,,0.00,7,Wunderground v.1.15,2013-12-27 22:49:00,
2013-12-27 16:54:00,50.0,36.2,30.31,NNW,340,1.0,6.0,59,0.00,,,0.00,5,Wunderground v.1.15,2013-12-27 22:54:00,
2013-12-27 16:59:00,49.8,36.0,30.32,North,356,1.0,6.0,59,0.00,,,0.00,0,Wunderground v.1.15,2013-12-27 22:59:00,
2013-12-27 17:05:00,49.7,35.9,30.32,North,356,0.0,1.0,59,0.00,,,0.00,0,Wunderground v.1.15,2013-12-27 23:05:00,
2013-12-27 17:10:00,49.5,35.3,30.32,NNE,15,0.0,1.0,58,0.00,,,0.00,0,Wunderground v.1.15,2013-12-27 23:10:00,
2013-12-27 17:15:00,49.4,34.8,30.32,NNE,29,1.0,4.0,57,0.00,,,0.00,0,Wunderground v.1.15,2013-12-27 23:15:00,
2013-12-27 17:21:00,49.3,34.3,30.32,NE,40,1.0,1.0,56,0.00,,,0.00,0,Wunderground v.1.15,2013-12-27 23:21:00,
2013-12-27 17:26:00,49.2,34.6,30.32,NNE,30,1.0,6.0,57,0.00,,,0.00,0,Wunderground v.1.15,2013-12-27 23:26:00,
2013-12-27 17:31:00,49.1,34.1,30.32,NNE,25,0.0,1.0,56,0.00,,,0.00,0,Wunderground v.1.15,2013-12-27 23:31:00,
2013-12-27 17:36:00,48.9,33.9,30.32,NNE,25,0.0,5.0,56,0.00,,,0.00,0,Wunderground v.1.15,2013-12-27 23:36:00,
2013-12-27 17:41:00,48.8,33.3,30.32,NNE,26,0.0,4.0,55,0.00,,,0.00,0,Wunderground v.1.15,2013-12-27 23:41:00,
2013-12-27 17:46:00,48.7,33.2,30.33,NNE,32,1.0,4.0,55,0.00,,,0.00,0,Wunderground v.1.15,2013-12-27 23:46:00,
2013-12-27 17:51:00,48.7,33.2,30.33,NNE,32,0.0,1.0,55,0.00,,,0.00,0,Wunderground v.1.15,2013-12-27 23:51:00,
2013-12-27 17:57:00,48.6,33.1,30.33,NE,40,1.0,5.0,55,0.00,,,0.00,0,Wunderground v.1.15,2013-12-27 23:57:00,
2013-12-27 18:03:00,48.5,32.6,30.33,ENE,59,1.0,1.0,54,0.00,,,0.00,0,Wunderground v.1.15,2013-12-28 00:03:00,
2013-12-27 18:09:00,48.4,33.4,30.33,NE,54,0.0,1.0,56,0.00,,,0.00,0,Wunderground v.1.15,2013-12-28 00:09:00,
2013-12-27 18:14:00,48.3,33.3,30.33,NE,54,0.0,1.0,56,0.00,,,0.00,0,Wunderground v.1.15,2013-12-28 00:14:00,
2013-12-27 18:19:00,48.2,33.2,30.33,NE,54,0.0,1.0,56,0.00,,,0.00,0,Wunderground v.1.15,2013-12-28 00:19:00,
2013-12-27 18:24:00,48.1,33.1,30.33,NE,53,0.0,1.0,56,0.00,,,0.00,0,Wunderground v.1.15,2013-12-28 00:24:00,
2013-12-27 18:30:00,47.9,33.4,30.33,NE,53,0.0,1.0,57,0.00,,,0.00,0,Wunderground v.1.15,2013-12-28 00:30:00,
2013-12-27 18:35:00,47.8,33.3,30.33,NE,53,0.0,1.0,57,0.00,,,0.00,0,Wunderground v.1.15,2013-12-28 00:35:00,
2013-12-27 18:41:00,47.7,33.2,30.34,NE,53,0.0,1.0,57,0.00,,,0.00,0,Wunderground v.1.15,2013-12-28 00:41:00,
2013-12-27 18:46:00,47.7,33.6,30.33,NE,53,0.0,1.0,58,0.00,,,0.00,0,Wunderground v.1.15,2013-12-28 00:46:00,
2013-12-27 18:51:00,47.6,33.1,30.33,NE,53,0.0,1.0,57,0.00,,,0.00,0,Wunderground v.1.15,2013-12-28 00:51:00,
2013-12-27 18:56:00,47.5,33.4,30.33,NE,53,0.0,1.0,58,0.00,,,0.00,0,Wunderground v.1.15,2013-12-28 00:56:00,
2013-12-27 19:01:00,47.4,33.4,30.33,NE,53,0.0,1.0,58,0.00,,,0.00,0,Wunderground v.1.15,2013-12-28 01:01:00,
2013-12-27 19:07:00,47.4,33.8,30.33,NE,53,0.0,5.0,59,0.00,,,0.00,0,Wunderground v.1.15,2013-12-28 01:07:00,
2013-12-27 19:12:00,47.3,33.7,30.33,NE,53,0.0,1.0,59,0.00,,,0.00,0,Wunderground v.1.15,2013-12-28 01:12:00,
2013-12-27 19:17:00,47.2,33.6,30.33,NE,46,0.0,1.0,59,0.00,,,0.00,0,Wunderground v.1.15,2013-12-28 01:17:00,
2013-12-27 19:22:00,47.2,33.6,30.33,NE,47,0.0,1.0,59,0.00,,,0.00,0,Wunderground v.1.15,2013-12-28 01:22:00,
2013-12-27 19:27:00,47.1,33.5,30.33,NE,47,0.0,1.0,59,0.00,,,0.00,0,Wunderground v.1.15,2013-12-28 01:27:00,
2013-12-27 19:32:00,47.1,33.1,30.33,NE,47,0.0,1.0,58,0.00,,,0.00,0,Wunderground v.1.15,2013-12-28 01:32:00,
2013-12-27 19:37:00,47.0,33.4,30.33,NE,47,0.0,1.0,59,0.00,,,0.00,0,Wunderground v.1.15,2013-12-28 01:37:00,
2013-12-27 19:42:00,46.9,33.3,30.33,NE,47,0.0,1.0,59,0.00,,,0.00,0,Wunderground v.1.15,2013-12-28 01:42:00,
2013-12-27 19:47:00,46.8,33.2,30.33,NE,47,0.0,1.0,59,0.00,,,0.00,0,Wunderground v.1.15,2013-12-28 01:47:00,
2013-12-27 19:52:00,46.7,33.5,30.33,NE,47,0.0,1.0,60,0.00,,,0.00,0,Wunderground v.1.15,2013-12-28 01:52:00,
2013-12-27 19:57:00,46.6,33.4,30.32,NE,47,0.0,1.0,60,0.00,,,0.00,0,Wunderground v.1.15,2013-12-28 01:57:00,
2013-12-27 20:02:00,46.5,33.4,30.33,NE,47,0.0,1.0,60,0.00,,,0.00,0,Wunderground v.1.15,2013-12-28 02:02:00,
2013-12-27 20:07:00,46.4,33.7,30.33,NE,47,0.0,1.0,61,0.00,,,0.00,0,Wunderground v.1.15,2013-12-28 02:07:00,
2013-12-27 20:13:00,46.4,33.7,30.32,NE,47,0.0,1.0,61,0.00,,,0.00,0,Wunderground v.1.15,2013-12-28 02:13:00,
2013-12-27 20:18:00,46.3,33.6,30.32,NE,47,0.0,1.0,61,0.00,,,0.00,0,Wunderground v.1.15,2013-12-28 02:18:00,
2013-12-27 20:23:00,46.2,33.1,30.32,NE,47,0.0,1.0,60,0.00,,,0.00,0,Wunderground v.1.15,2013-12-28 02:23:00,
2013-12-27 20:28:00,46.3,33.6,30.32,NE,46,0.0,1.0,61,0.00,,,0.00,0,Wunderground v.1.15,2013-12-28 02:28:00,
2013-12-27 20:34:00,46.2,33.5,30.33,NE,46,0.0,1.0,61,0.00,,,0.00,0,Wunderground v.1.15,2013-12-28 02:34:00,
2013-12-27 20:39:00,46.2,33.5,30.32,NE,46,0.0,1.0,61,0.00,,,0.00,0,Wunderground v.1.15,2013-12-28 02:39:00,
2013-12-27 20:44:00,46.2,33.5,30.33,NE,46,0.0,1.0,61,0.00,,,0.00,0,Wunderground v.1.15,2013-12-28 02:44:00,
2013-12-27 20:49:00,46.2,33.5,30.33,NE,46,0.0,1.0,61,0.00,,,0.00,0,Wunderground v.1.15,2013-12-28 02:49:00,
2013-12-27 20:54:00,46.1,33.4,30.33,NE,46,0.0,1.0,61,0.00,,,0.00,0,Wunderground v.1.15,2013-12-28 02:54:00,
2013-12-27 21:00:00,46.1,33.4,30.33,NE,46,0.0,1.0,61,0.00,,,0.00,0,Wunderground v.1.15,2013-12-28 03:00:00,
2013-12-27 21:06:00,46.0,33.3,30.32,NE,46,0.0,1.0,61,0.00,,,0.00,0,Wunderground v.1.15,2013-12-28 03:06:00,
2013-12-27 21:11:00,46.0,33.7,30.32,NE,45,0.0,1.0,62,0.00,,,0.00,0,Wunderground v.1.15,2013-12-28 03:11:00,
2013-12-27 21:16:00,46.0,33.7,30.32,NE,45,0.0,1.0,62,0.00,,,0.00,0,Wunderground v.1.15,2013-12-28 03:16:00,
2013-12-27 21:21:00,45.9,33.6,30.32,NE,45,0.0,1.0,62,0.00,,,0.00,0,Wunderground v.1.15,2013-12-28 03:21:00,
2013-12-27 21:27:00,45.9,33.6,30.32,NE,45,0.0,1.0,62,0.00,,,0.00,0,Wunderground v.1.15,2013-12-28 03:27:00,
2013-12-27 21:32:00,45.8,33.5,30.31,NE,45,0.0,1.0,62,0.00,,,0.00,0,Wunderground v.1.15,2013-12-28 03:32:00,
2013-12-27 21:37:00,45.8,33.9,30.31,NE,45,0.0,1.0,63,0.00,,,0.00,0,Wunderground v.1.15,2013-12-28 03:37:00,
2013-12-27 21:42:00,45.8,33.9,30.31,NE,45,0.0,1.0,63,0.00,,,0.00,0,Wunderground v.1.15,2013-12-28 03:42:00,
2013-12-27 21:47:00,45.8,33.9,30.31,NE,44,1.0,1.0,63,0.00,,,0.00,0,Wunderground v.1.15,2013-12-28 03:47:00,
2013-12-27 21:52:00,45.7,33.4,30.31,NE,44,0.0,1.0,62,0.00,,,0.00,0,Wunderground v.1.15,2013-12-28 03:52:00,
2013-12-27 21:57:00,45.7,33.4,30.31,NNW,329,0.0,2.0,62,0.00,,,0.00,0,Wunderground v.1.15,2013-12-28 03:57:00,
2013-12-27 22:03:00,45.9,33.6,30.30,NE,37,1.0,5.0,62,0.00,,,0.00,0,Wunderground v.1.15,2013-12-28 04:03:00,
2013-12-27 22:08:00,46.0,33.7,30.30,NE,38,1.0,5.0,62,0.00,,,0.00,0,Wunderground v.1.15,2013-12-28 04:08:00,
2013-12-27 22:13:00,46.0,33.7,30.31,NE,36,0.0,1.0,62,0.00,,,0.00,0,Wunderground v.1.15,2013-12-28 04:13:00,
2013-12-27 22:18:00,46.0,33.7,30.31,ENE,63,1.0,4.0,62,0.00,,,0.00,0,Wunderground v.1.15,2013-12-28 04:18:00,
2013-12-27 22:23:00,46.0,33.7,30.31,ENE,61,0.0,1.0,62,0.00,,,0.00,0,Wunderground v.1.15,2013-12-28 04:23:00,
2013-12-27 22:28:00,46.0,33.7,30.31,NE,55,0.0,4.0,62,0.00,,,0.00,0,Wunderground v.1.15,2013-12-28 04:28:00,
2013-12-27 22:34:00,46.0,33.7,30.31,NE,50,0.0,1.0,62,0.00,,,0.00,0,Wunderground v.1.15,2013-12-28 04:34:00,
2013-12-27 22:39:00,46.0,33.7,30.31,NE,50,0.0,1.0,62,0.00,,,0.00,0,Wunderground v.1.15,2013-12-28 04:39:00,
2013-12-27 22:44:00,46.1,33.8,30.30,NE,48,0.0,5.0,62,0.00,,,0.00,0,Wunderground v.1.15,2013-12-28 04:44:00,
2013-12-27 22:49:00,46.1,33.4,30.30,NE,48,1.0,5.0,61,0.00,,,0.00,0,Wunderground v.1.15,2013-12-28 04:49:00,
2013-12-27 22:54:00,46.1,33.4,30.30,NE,42,0.0,1.0,61,0.00,,,0.00,0,Wunderground v.1.15,2013-12-28 04:54:00,
2013-12-27 23:00:00,46.2,33.5,30.29,NE,43,0.0,1.0,61,0.00,,,0.00,0,Wunderground v.1.15,2013-12-28 05:00:00,
2013-12-27 23:01:00,46.2,33.1,30.29,NNE,27,1.0,6.0,60,0.00,,,0.00,0,Wunderground v.1.15,2013-12-28 05:01:00,
2013-12-27 23:02:00,46.2,33.5,30.29,NNE,32,1.0,6.0,61,0.00,,,0.00,0,Wunderground v.1.15,2013-12-28 05:02:00,
2013-12-27 23:05:00,46.3,33.6,30.30,North,5,1.0,6.0,61,0.00,,,0.00,0,Wunderground v.1.15,2013-12-28 05:05:00,
2013-12-27 23:08:00,46.3,33.6,30.30,ENE,57,1.0,6.0,61,0.00,,,0.00,0,Wunderground v.1.15,2013-12-28 05:08:00,
2013-12-27 23:09:00,46.3,33.2,30.30,ENE,57,1.0,6.0,60,0.00,,,0.00,0,Wunderground v.1.15,2013-12-28 05:09:00,
2013-12-27 23:11:00,46.4,32.8,30.30,NE,38,1.0,3.0,59,0.00,,,0.00,0,Wunderground v.1.15,2013-12-28 05:11:00,
2013-12-27 23:17:00,46.4,33.7,30.30,NE,49,0.0,3.0,61,0.00,,,0.00,0,Wunderground v.1.15,2013-12-28 05:17:00,
2013-12-27 23:22:00,46.4,32.8,30.30,NNE,19,0.0,4.0,59,0.00,,,0.00,0,Wunderground v.1.15,2013-12-28 05:22:00,
2013-12-27 23:28:00,46.5,32.9,30.29,NE,50,1.0,5.0,59,0.00,,,0.00,0,Wunderground v.1.15,2013-12-28 05:28:00,
2013-12-27 23:34:00,46.6,33.0,30.29,NE,48,1.0,3.0,59,0.00,,,0.00,0,Wunderground v.1.15,2013-12-28 05:34:00,
2013-12-27 23:39:00,46.5,32.9,30.28,NE,52,0.0,3.0,59,0.00,,,0.00,0,Wunderground v.1.15,2013-12-28 05:39:00,
2013-12-27 23:44:00,46.6,33.4,30.28,NE,36,0.0,1.0,60,0.00,,,0.00,0,Wunderground v.1.15,2013-12-28 05:44:00,
2013-12-27 23:49:00,46.5,32.9,30.27,ENE,73,1.0,5.0,59,0.00,,,0.00,0,Wunderground v.1.15,2013-12-28 05:49:00,
2013-12-27 23:54:00,46.5,32.9,30.27,East,79,1.0,1.0,59,0.00,,,0.00,0,Wunderground v.1.15,2013-12-28 05:54:00,
2013-12-27 23:59:00,46.5,32.5,30.27,ENE,75,0.0,1.0,58,0.00,,,0.00,0,Wunderground v.1.15,2013-12-28 05:59:00,